This demonstration page uses our WeatherBlox Daily Observations layout. Learn more.

Hourly Observations for June 30, 2018

Temp ( °F °C ) Dew Point ( °F °C ) Humidity (%) Winds ( mph kmh ) Pressure ( in mb ) Visibility ( mi km ) Precip ( " mm )
12:15 am 00:15 Partly Cloudy with Nearby Thunderstorms 81 27.1 66 19 61 61 SSW 10 17 29.65 1004 10 16.09344 0 0
12:35 am 00:35 Clear with Nearby Thunderstorms 78 25.5 60 15.5 54 54 SW 12 19 29.65 1004 10 16.09344 0 0
12:55 am 00:55 Partly Cloudy 76 24.6 61 15.9 58 58 W 9 15 29.65 1004 10 16.09344 0 0
1:15 am 01:15 Partly Cloudy 76 24.4 60 15.8 59 59 S 5 7 29.68 1005 10 16.09344 0 0
1:35 am 01:35 Partly Cloudy 73 23 62 16.7 68 68 SSE 8 13 29.68 1005 10 16.09344 0 0
1:55 am 01:55 Clear 75 23.7 62 16.4 64 64 S 7 11 29.65 1004 10 16.09344 0 0
2:15 am 02:15 Clear 74 23.3 62 16.7 67 67 SSE 8 13 29.68 1005 10 16.09344 0 0
2:35 am 02:35 Clear 73 22.9 63 17 69 69 SSE 7 11 29.68 1005 10 16.09344 0 0
2:55 am 02:55 Clear 74 23.4 62 16.7 66 66 S 8 13 29.68 1005 10 16.09344 0 0
3:15 am 03:15 Clear 74 23.6 63 17.1 67 67 S 8 13 29.68 1005 10 16.09344 0 0
3:35 am 03:35 Clear 73 22.7 63 17.3 72 72 NNW 12 19 29.74 1007 10 16.09344 0 0
3:55 am 03:55 Mostly Cloudy with Light Rain 72 22.3 69 20.5 90 90 N 15 24 29.71 1006 10 16.09344 0 0
4:15 am 04:15 Partly Cloudy 71 21.7 69 20.7 94 94 N 12 19 29.74 1007 10 16.09344 0 0
4:35 am 04:35 Clear 71 21.5 69 20.5 94 94 N 10 17 29.71 1006 10 16.09344 0 0
4:55 am 04:55 Clear 70 21.1 69 20.3 95 95 N 12 19 29.74 1007 10 16.09344 0 0
5:15 am 05:15 Clear with Nearby Thunderstorms 70 21.1 68 20.1 94 94 N 10 17 29.8 1009 10 16.09344 0 0
5:35 am 05:35 Mostly Cloudy 70 20.9 67 19.4 91 91 NW 20 31 29.83 1010 10 16.09344 0 0
5:55 am 05:55 Cloudy with Rain 68 20.1 65 18.6 91 91 N 13 20 29.8 1009 10 16.09344 0 0
6:15 am 06:15 Mostly Cloudy with Light Rain 68 20 67 19.2 95 95 NNE 14 22 29.8 1009 10 16.09344 0.01 0.254
6:35 am 06:35 Partly Cloudy 68 20.1 67 19.5 96 96 E 12 19 29.83 1010 10 16.09344 0.01 0.254
6:55 am 06:55 Sunny 69 20.5 67 19.5 94 94 NE 12 19 29.8 1009 10 16.09344 0.01 0.254
7:15 am 07:15 Sunny 69 20.8 68 20 95 95 NE 9 15 29.8 1009 10 16.09344 0 0
7:35 am 07:35 Sunny 70 21.1 68 20.2 95 95 NE 10 17 29.83 1010 10 16.09344 0 0
7:55 am 07:55 Sunny 70 21.3 69 20.3 94 94 NE 10 17 29.8 1009 10 16.09344 0 0
8:15 am 08:15 Sunny 71 21.5 69 20.5 94 94 NE 7 11 29.83 1010 10 16.09344 0 0
8:35 am 08:35 Sunny 71 21.6 69 20.8 95 95 NNE 8 13 29.83 1010 10 16.09344 0 0
8:55 am 08:55 Sunny 72 22 69 20.8 93 93 NNE 8 13 29.83 1010 10 16.09344 0 0
9:15 am 09:15 Partly Cloudy 72 22.2 69 20.8 92 92 NNE 9 15 29.8 1009 10 16.09344 0 0
9:35 am 09:35 Mostly Cloudy 72 22 70 21 94 94 NNE 12 19 29.77 1008 10 16.09344 0 0
9:55 am 09:55 Partly Cloudy 74 23.2 71 21.4 90 90 NE 12 19 29.77 1008 10 16.09344 0 0
10:15 am 10:15 Sunny 75 23.8 71 21.4 86 86 NE 13 20 29.77 1008 10 16.09344 0 0
10:35 am 10:35 Partly Cloudy with Light Rain 75 24.1 71 21.5 85 85 ENE 12 19 29.8 1009 10 16.09344 0 0
10:55 am 10:55 Partly Cloudy 77 24.8 71 21.6 82 82 E 12 19 29.8 1009 10 16.09344 0 0
11:15 am 11:15 Partly Cloudy 78 25.6 72 22 81 81 ENE 10 17 29.8 1009 10 16.09344 0 0
11:35 am 11:35 Partly Cloudy 79 26 71 21.8 78 78 ENE 16 26 29.77 1008 10 16.09344 0 0
11:55 am 11:55 Partly Cloudy 80 26.6 71 21.7 75 75 ENE 17 28 29.77 1008 10 16.09344 0 0
12:15 pm 12:15 Partly Cloudy 80 26.6 68 20.2 68 68 ENE 14 22 29.77 1008 10 16.09344 0 0
12:35 pm 12:35 Partly Cloudy 79 25.9 69 20.6 73 73 ENE 14 22 29.77 1008 10 16.09344 0 0
12:55 pm 12:55 Mostly Cloudy 82 27.6 70 21.2 68 68 E 15 24 29.77 1008 10 16.09344 0 0
1:15 pm 13:15 Mostly Cloudy 81 27.1 71 21.5 72 72 ENE 14 22 29.77 1008 10 16.09344 0 0
1:35 pm 13:35 Cloudy 80 26.5 71 21.9 76 76 ENE 14 22 29.77 1008 10 16.09344 0 0
1:55 pm 13:55 Mostly Cloudy 80 26.9 72 22.1 75 75 ENE 15 24 29.77 1008 10 16.09344 0 0
2:15 pm 14:15 Mostly Cloudy 80 26.9 72 22.1 75 75 NE 15 24 29.77 1008 10 16.09344 0 0
2:35 pm 14:35 Mostly Cloudy 82 27.6 72 22.4 73 73 NE 14 22 29.74 1007 10 16.09344 0 0
2:55 pm 14:55 Mostly Cloudy 78 25.7 71 21.7 79 79 ENE 14 22 29.74 1007 10 16.09344 0 0
3:15 pm 15:15 Cloudy with Heavy Thunderstorms 75 23.8 72 22.2 91 91 NE 13 20 29.77 1008 3 4.828032 0.08 2.032
3:35 pm 15:35 Partly Cloudy with Heavy Thunderstorms 74 23.1 72 22.1 94 94 NE 17 28 29.8 1009 1 1.609344 0.24 6.096
3:55 pm 15:55 Cloudy with Heavy Thunderstorms 73 22.6 72 22.2 98 98 ENE 17 28 29.8 1009 3 4.828032 0.47 11.938
4:15 pm 16:15 Mostly Cloudy with Light Thunderstorms 70 20.9 66 19.1 90 90 NE 18 30 29.8 1009 10 16.09344 0.04 1.016
4:35 pm 16:35 Mostly Cloudy with Light Thunderstorms 69 20.5 65 18.3 87 87 SW 14 22 29.85 1011 10 16.09344 0.04 1.016
4:55 pm 16:55 Cloudy 69 20.3 66 19.1 93 93 N 26 43 29.8 1009 7 11.265408 0.04 1.016
5:15 pm 17:15 Partly Cloudy with Nearby Thunderstorms 72 22.2 70 20.9 92 92 NE 16 26 29.74 1007 10 16.09344 0 0
5:35 pm 17:35 Partly Cloudy with Nearby Thunderstorms 73 22.7 70 21.1 91 91 NE 14 22 29.74 1007 10 16.09344 0 0
5:55 pm 17:55 Partly Cloudy 72 22 65 18.4 80 80 NE 10 17 29.74 1007 10 16.09344 0 0
6:15 pm 18:15 Sunny 71 21.4 67 19.2 87 87 NE 8 13 29.77 1008 10 16.09344 0 0
6:35 pm 18:35 Partly Cloudy 72 22.1 70 20.9 93 93 NE 8 13 29.71 1006 10 16.09344 0 0
7:15 pm 19:15 Sunny 73 22.7 69 20.7 89 89 NE 14 22 29.71 1006 10 16.09344 0 0
7:35 pm 19:35 Partly Cloudy 73 23 69 20.6 86 86 NE 12 19 29.68 1005 10 16.09344 0 0
7:55 pm 19:55 Partly Cloudy 73 22.8 69 20.6 87 87 ENE 10 17 29.68 1005 10 16.09344 0 0
8:15 pm 20:15 Sunny 73 22.5 68 20.2 87 87 ENE 8 13 29.68 1005 10 16.09344 0 0
8:35 pm 20:35 Mostly Cloudy 72 22.2 68 20.1 88 88 NE 13 20 29.68 1005 10 16.09344 0 0
8:55 pm 20:55 Cloudy 71 21.6 67 19.7 89 89 NE 9 15 29.71 1006 10 16.09344 0 0
9:15 pm 21:15 Cloudy 70 21.2 68 19.8 92 92 NE 7 11 29.68 1005 10 16.09344 0 0
9:35 pm 21:35 Mostly Cloudy 69 20.8 68 20 95 95 NE 9 15 29.71 1006 10 16.09344 0 0
9:55 pm 21:55 Mostly Cloudy 69 20.8 68 20.1 96 96 NNW 14 22 29.74 1007 10 16.09344 0 0
10:15 pm 22:15 Cloudy 64 18 63 17.2 95 95 NNW 29 46 29.77 1008 4 6.437376 0.03 0.762
10:35 pm 22:35 Mostly Clear with Heavy Thunderstorms 62 16.5 62 16.5 100 100 NNW 15 24 29.85 1011 1.25 2.01168 0.72 18.288
10:55 pm 22:55 Cloudy with Heavy Rain 62 16.5 62 16.5 100 100 NW 12 19 29.91 1013 5 8.04672 0.84 21.336
11:15 pm 23:15 Cloudy with Thunderstorms 62 16.7 62 16.7 100 100 NW 17 28 29.94 1014 7 11.265408 0.05 1.27
11:35 pm 23:35 Cloudy with Rain 62 16.8 62 16.6 99 99 N 18 30 29.91 1013 10 16.09344 0.09 2.286
11:55 pm 23:55 Cloudy with Light Rain 62 16.5 61 16.1 98 98 NW 14 22 29.94 1014 10 16.09344 0.11 2.794

Powered by AerisWeather